Flag for Sweden Weather past 2 weeks in Södertälje, Sweden

Now
39 °F

Broken clouds.


Feels Like: 29 °F
Forecast: 35 / 40 °F
Wind: 22 mph from Southeast

Location: Stockholm Bromma Airport

Current Time: Mar 1, 2015 at 1:00:39 PM

Latest Report: Mar 1, 2015 at 12:20 PM


Visibility: N/A

Pressure: 29.53 "Hg

Humidity: 70%

Dew point: 30 °F

Location of SödertäljeLocation

Historic Weather in Södertälje — Graph

°F

Södertälje temperature yesterday

Maximum temperature yesterday: 37 °F (at 9:20 AM)
Minimum temperature yesterday: 32 °F (at 11:50 PM)
Average temperature yesterday: 36 °F

Past Weeks' High & Low Weather Summary

 TemperatureHumidityPressure
High46 °F (Feb 19, 12:50 PM)100% (Feb 19, 5:20 AM)30.66 "Hg (Feb 19, 5:20 AM)
Low28 °F (Feb 16, 6:20 AM)47% (Feb 15, 2:50 PM)29.12 "Hg (Feb 22, 2:20 AM)
Average36 °F83%29.88 "Hg
* Reported Feb 14 11:20 AM — Mar 1 11:50 AM, Södertälje, Weather by CustomWeather, © 2015

Note: Actual official high and low records may vary slightly from our data, if they occured in-between our weather recording intervals... More about our weather records

Advertising

Södertälje weather history for previous 24 hours

 ConditionsComfort  
Time TempWeatherWind HumidityBarometerVisibility
11:50 AM
Sun, Mar 1
39 °FScattered clouds.17 mph70%29.53 "HgN/A
11:20 AM37 °FPartly sunny.16 mph75%29.56 "HgN/A
10:50 AM37 °FBroken clouds.17 mph75%29.59 "HgN/A
10:20 AM37 °FOvercast.18 mph75%29.59 "HgN/A
9:50 AM37 °FOvercast.14 mph75%29.62 "HgN/A
9:20 AM37 °FOvercast.15 mph75%29.62 "HgN/A
8:50 AM36 °FMostly cloudy.12 mph81%29.62 "HgN/A
8:20 AM36 °FMostly cloudy.12 mph81%29.65 "HgN/A
7:50 AM36 °FOvercast.14 mph81%29.65 "HgN/A
7:20 AM34 °FPartly sunny.12 mph87%29.65 "HgN/A
6:50 AM32 °FPassing clouds.10 mph93%29.65 "HgN/A
6:20 AM32 °FPassing clouds.7 mph93%29.68 "HgN/A
5:50 AM32 °FChilly.8 mph93%29.68 "HgN/A
5:20 AM32 °FChilly.9 mph93%29.68 "HgN/A
4:50 AM32 °FChilly.10 mph93%29.68 "HgN/A
4:20 AM32 °FPassing clouds.8 mph87%29.71 "HgN/A
3:50 AM32 °FOvercast.9 mph87%29.71 "HgN/A
3:20 AM32 °FOvercast.9 mph87%29.71 "HgN/A
2:50 AM32 °FOvercast.8 mph87%29.74 "HgN/A
2:20 AM34 °FOvercast.9 mph81%29.74 "HgN/A
1:50 AM32 °FOvercast.7 mph87%29.74 "HgN/A
1:20 AM32 °FPassing clouds.7 mph87%29.74 "HgN/A
12:50 AM32 °FChilly.7 mph87%29.77 "HgN/A
12:20 AM34 °FPassing clouds.8 mph81%29.77 "HgN/A
11:50 PM
Sat, Feb 28
32 °FPassing clouds.6 mph93%29.77 "HgN/A
11:20 PM34 °FFog.7 mph87%29.80 "Hg6 mi
10:50 PM34 °FFog.8 mph93%29.80 "Hg4 mi
10:20 PM34 °FFog.6 mph93%29.80 "Hg3 mi
9:50 PM34 °FFog.5 mph93%29.80 "Hg3 mi
9:20 PM34 °FFog.6 mph93%29.83 "Hg3 mi
8:50 PM34 °FFog.7 mph93%29.83 "Hg3 mi
8:20 PM36 °FFog.6 mph87%29.83 "Hg3 mi
7:50 PM34 °FFog.6 mph93%29.83 "Hg3 mi
7:20 PM34 °FFog.6 mph93%29.83 "Hg4 mi
6:50 PM34 °FFog.6 mph93%29.83 "Hg4 mi
6:20 PM34 °FFog.6 mph93%29.83 "Hg4 mi
5:50 PM36 °FFog.6 mph87%29.86 "Hg5 mi
5:20 PM36 °FFog.7 mph87%29.86 "Hg5 mi
4:50 PM37 °FFog.6 mph87%29.86 "Hg6 mi
4:20 PM37 °FFog.7 mph87%29.86 "Hg6 mi
3:50 PM37 °FFog.7 mph87%29.86 "Hg5 mi
3:20 PM37 °FFog.7 mph87%29.86 "Hg5 mi
2:50 PM37 °FFog.7 mph87%29.86 "Hg5 mi
2:20 PM37 °FFog.7 mph87%29.86 "Hg4 mi
1:50 PM37 °FFog.6 mph87%29.86 "Hg4 mi
1:20 PM37 °FFog.8 mph87%29.89 "Hg4 mi
Weather by CustomWeather, © 2015

See weather overviewHow to use our weather pages